Regional Weather Roundup
Issued by NWS Memphis, TN

Home | Current Version | Previous Version | Text Only | Print | Product List | Glossary On
Versions: 1 2 3 4 5 6 7 8 9 10 11 12 13 14 15 16 17 18 19 20 21 22 23 24 25 26 27 28 29 30 31 32 33 34 35 36 37 38 39 40 41 42 43 44 45 46 47 48 49 50
000
ASUS44 KMEG 171410
RWRMEG
MEMPHIS CWA HOURLY WEATHER ROUNDUP
NATIONAL WEATHER SERVICE MEMPHIS TN
900 AM CDT TUE SEP 17 2019

...WEST TENNESSEE...

CITY           SKY/WX    TMP DP  RH WIND       PRES   REMARKS
MEMPHIS INTL   FAIR      85  67  54 E5        30.06S
NWS MEMPHIS      N/A     82 N/A N/A MISG        N/A
JACKSON        FAIR      81  69  67 CALM      30.07S
SOMERVILLE     SUNNY     81  68  65 CALM      30.06S
BOLIVAR        SUNNY     81  70  69 CALM      30.06S
LEXINGTON      SUNNY     77  70  78 CALM      30.06S
SELMER         SUNNY     81  66  61 N5        30.06S
DYERSBURG      FAIR      80  71  74 CALM      30.07S
UNION CITY     SUNNY     81  72  74 CALM      30.05S
PARIS          SUNNY     82  72  69 CALM      30.06F
HUNTINGDON     SUNNY     81  73  78 CALM      30.07R


...EASTERN ARKANSAS...

CITY           SKY/WX    TMP DP  RH WIND       PRES   REMARKS
JONESBORO      FAIR      82  68  62 CALM      30.06S
WEST MEMPHIS   FAIR      84  71  65 CALM      30.05S
BATESVILLE       N/A     74  68  81 MISG        N/A
NEWPORT        FAIR      76  70  82 N3        30.08S
WALNUT RIDGE   FAIR      77  71  82 NW5       30.07S
BLYTHEVILLE    FAIR      80  69  69 CALM      30.07R HAZE
NW BLYTHEVILLE SUNNY     81  68  65 CALM      30.06S
SEARCY         FAIR      79  70  74 N5        30.08R
STUTTGART      FAIR      81  71  71 CALM      30.07R
PINE BLUFF     FAIR      78  69  73 MISG      30.06S
MONTICELLO     FAIR      83  71  67 CALM      30.05S


...NORTH MISSISSIPPI...

CITY           SKY/WX    TMP DP  RH WIND       PRES   REMARKS
TUPELO         FAIR      81  67  62 NE6       30.05S
OXFORD         FAIR      81  70  69 CALM      30.07S
BATESVILLE     FAIR      79  72  78 SW3       30.06R
OLIVE BRANCH   MOSUNNY   81  66  61 NE6       30.07R
TUNICA           N/A     79  70  73 CALM      30.07R
CLARKSDALE       N/A     81  73  78 CALM      30.06S
CORINTH        FAIR      77  70  78 CALM      30.06S
GREENWOOD      FAIR      79  72  79 CALM      30.05R
COLUMBUS       FAIR      80  69  69 CALM      30.04R
STARKVILLE     FAIR      79  70  73 CALM      30.06S
GOLDEN TRIANGL FAIR      80  70  71 CALM      30.05S


...SOUTHEAST MISSOURI...

CITY           SKY/WX    TMP DP  RH WIND       PRES   REMARKS
KENNETT          N/A     81  72  74 CALM      30.06R
MALDEN         FAIR      81  72  74 NE6       30.08S
WEST PLAINS    SUNNY     77  67  71 CALM      30.14R
POPLAR BLUFF   FAIR      79  71  76 N5        30.07S
CAPE GIRARDEAU FAIR      80  72  76 CALM      30.07S


...NORTHWEST ALABAMA...

CITY           SKY/WX    TMP DP  RH WIND       PRES   REMARKS
MUSCLE SHOALS  FAIR      82  67  60 CALM      30.06S


...MIDDLE TENNESSEE...

CITY           SKY/WX    TMP DP  RH WIND       PRES   REMARKS
NASHVILLE      FAIR      83  68  60 W3        30.07R
CLARKSVILLE    FAIR      81  70  69 NE3       30.07R
DICKSON        SUNNY     82  70  65 CALM      30.07S
COLUMBIA       SUNNY     77  70  78 CALM      30.06R
LAWRENCEBURG   SUNNY     82  68  61 CALM      30.07S
LEWISBURG      SUNNY     81  66  61 CALM      30.07R


...WESTERN KENTUCKY...

CITY           SKY/WX    TMP DP  RH WIND       PRES   REMARKS
PADUCAH        FAIR      81  71  71 CALM      30.06S
FORT CAMPBELL  FAIR      80  71  72 CALM      30.07R


...CENTRAL ARKANSAS...

CITY           SKY/WX    TMP DP  RH WIND       PRES   REMARKS
LITTLE ROCK    MOSUNNY   80  69  69 NE3       30.06S


SKY/WX REPORTED AS FAIR MEANS FEW OR NO CLOUDS BELOW
12 THOUSAND FEET.




USA.gov is the U.S. government's official web portal to all federal, state and local government web resources and services.